TimeCDT,TemperatureF,Dew PointF,Humidity,Sea Level PressureIn,VisibilityMPH,Wind Direction,Wind SpeedMPH,Gust SpeedMPH,PrecipitationIn,Events,Conditions,WindDirDegrees,DateUTC
12:53 AM,39.9,34.0,79,30.33,10.0,East,3.5,-,N/A,,Clear,100,2011-10-01 05:53:00
1:53 AM,35.1,33.1,92,30.35,10.0,Calm,Calm,-,N/A,,Clear,0,2011-10-01 06:53:00
2:53 AM,37.0,33.1,86,30.34,10.0,East,4.6,-,N/A,,Clear,100,2011-10-01 07:53:00
3:53 AM,37.4,33.8,87,30.31,10.0,Calm,Calm,-,N/A,,Clear,0,2011-10-01 08:53:00
4:53 AM,33.1,30.0,89,30.35,10.0,ESE,3.5,-,N/A,,Clear,110,2011-10-01 09:53:00
5:53 AM,30.9,30.0,96,30.36,10.0,Calm,Calm,-,N/A,,Clear,0,2011-10-01 10:53:00
6:53 AM,34.0,32.0,92,30.37,10.0,SE,3.5,-,N/A,,Clear,130,2011-10-01 11:53:00
7:53 AM,33.1,30.9,92,30.38,10.0,SE,3.5,-,N/A,,Clear,130,2011-10-01 12:53:00
8:53 AM,39.9,36.0,86,30.39,10.0,SE,8.1,-,N/A,,Clear,140,2011-10-01 13:53:00
9:53 AM,46.9,34.0,61,30.39,10.0,South,15.0,-,N/A,,Clear,170,2011-10-01 14:53:00
10:53 AM,51.1,33.1,50,30.40,10.0,South,12.7,-,N/A,,Clear,180,2011-10-01 15:53:00
11:53 AM,54.0,33.1,45,30.38,10.0,SSE,12.7,-,N/A,,Clear,150,2011-10-01 16:53:00
12:53 PM,57.2,33.8,41,30.30,10.0,South,15.0,-,N/A,,Clear,190,2011-10-01 17:53:00
1:53 PM,59.0,35.1,41,30.31,10.0,South,12.7,-,N/A,,Clear,170,2011-10-01 18:53:00
2:53 PM,61.0,35.1,38,30.28,10.0,South,9.2,-,N/A,,Clear,180,2011-10-01 19:53:00
3:53 PM,62.1,34.0,35,30.27,10.0,South,10.4,-,N/A,,Clear,170,2011-10-01 20:53:00
4:53 PM,62.6,35.6,37,30.21,10.0,SSE,11.5,-,N/A,,Clear,160,2011-10-01 21:53:00
5:53 PM,61.0,35.1,38,30.25,10.0,SSE,11.5,-,N/A,,Clear,150,2011-10-01 22:53:00
6:53 PM,55.9,37.0,49,30.24,10.0,SE,5.8,-,N/A,,Clear,130,2011-10-01 23:53:00
7:53 PM,50.0,37.0,61,30.23,10.0,SE,6.9,-,N/A,,Clear,130,2011-10-02 00:53:00
8:53 PM,52.0,37.0,57,30.21,10.0,SE,6.9,-,N/A,,Clear,130,2011-10-02 01:53:00
9:53 PM,46.0,37.0,71,30.21,10.0,SE,6.9,-,N/A,,Clear,140,2011-10-02 02:53:00
10:53 PM,46.4,37.4,71,30.17,10.0,SE,4.6,-,N/A,,Clear,140,2011-10-02 03:53:00
11:53 PM,46.0,37.0,71,30.22,10.0,SE,5.8,-,N/A,,Clear,130,2011-10-02 04:53:00